Palacios, TX

8:58 AM CDT on September 26, 2017 (GMT -0500)
Palacios Municipal

Weather History for KPSX - November, 2012

Change the Weather History Date:

Tuesday, November 6, 2012

  Actual Average Record
Temperature  
Mean Temperature 68 °F -  
Max Temperature 80 °F 73 °F 89 °F (1963)
Min Temperature 57 °F 53 °F 35 °F (1959)
Cooling Degree Days 4    
Growing Degree Days 18 (Base 50)    
Moisture  
Dew Point 48 °F    
Average Humidity 53    
Maximum Humidity 81    
Minimum Humidity 25    
Precipitation  
Precipitation 0.00 in - - ()
Sea Level Pressure  
Sea Level Pressure 30.10 in    
Wind  
Wind Speed 7 mph (NNE)    
Max Wind Speed 13 mph    
Max Gust Speed -    
Visibility 10 miles    
Events      
Averages and records for this station are not official NWS values.
T = Trace of Precipitation, MM = Missing Value Source: NWS Daily Summary

Daily Weather History Graph

Daily Weather History Graph

Search for Another Location

Airport or City:

Trip Planner

Search our weather history database for the weather conditions in past years. The results will help you decide how hot, cold, wet, or windy it might be!

Date:

Astronomy

Nov. 06, 2012 Rise Set
Actual Time 6:41 AM CST 5:35 PM CST
Civil Twilight 6:16 AM CST 6:00 PM CST
Nautical Twilight 5:48 AM CST 6:28 PM CST
Astronomical Twilight 5:20 AM CST 6:56 PM CST
Moon No Moon Rise 12:38 PM CST (11/6)
Length of Visible Light 11h 43m
Length of Day
10h 54m
Waning Gibbous, 53% of the Moon is Illuminated
Nov 6
Waning Gibbous
Nov 6
Last Quarter
Nov 13
New
Nov 20
First Quarter
Nov 28
Full

Hourly Weather History & Observations

Time (CST) Temp. Dew Point Humidity Pressure Visibility Wind Dir Wind Speed Gust Speed Precip Events Conditions
12:53 AM 66.9 °F 60.1 °F 79% 30.02 in 10.0 mi North 9.2 mph - N/A   Clear
1:53 AM 64.9 °F 59.0 °F 81% 30.03 in 10.0 mi North 8.1 mph - N/A   Clear
2:53 AM 63.0 °F 57.0 °F 81% 30.04 in 10.0 mi North 5.8 mph - N/A   Clear
3:53 AM 62.1 °F 55.9 °F 80% 30.06 in 10.0 mi North 9.2 mph - N/A   Mostly Cloudy
4:53 AM 61.0 °F 55.0 °F 81% 30.08 in 10.0 mi North 5.8 mph - N/A   Partly Cloudy
5:53 AM 63.0 °F 53.1 °F 70% 30.10 in 10.0 mi NNE 3.5 mph - N/A   Overcast
6:53 AM 60.1 °F 53.1 °F 78% 30.11 in 10.0 mi NNE 5.8 mph - N/A   Overcast
7:53 AM 64.9 °F 52.0 °F 63% 30.13 in 10.0 mi NE 4.6 mph - N/A   Clear
8:53 AM 68.0 °F 48.0 °F 49% 30.15 in 10.0 mi NNE 5.8 mph - N/A   Scattered Clouds
9:53 AM 71.1 °F 42.1 °F 35% 30.16 in 10.0 mi NE 9.2 mph - N/A   Clear
10:53 AM 73.0 °F 42.1 °F 33% 30.16 in 10.0 mi North 9.2 mph - N/A   Clear
11:53 AM 75.9 °F 39.9 °F 27% 30.14 in 10.0 mi North 9.2 mph - N/A   Clear
12:53 PM 78.1 °F 39.9 °F 25% 30.11 in 10.0 mi North 12.7 mph - N/A   Clear
1:53 PM 78.1 °F 39.9 °F 25% 30.08 in 10.0 mi NNE 12.7 mph - N/A   Clear
2:53 PM 80.1 °F 43.0 °F 27% 30.07 in 10.0 mi NNW 6.9 mph - N/A   Clear
3:53 PM 79.0 °F 43.0 °F 28% 30.07 in 10.0 mi NNW 8.1 mph - N/A   Clear
4:53 PM 75.9 °F 44.1 °F 32% 30.07 in 10.0 mi NNW 5.8 mph - N/A   Clear
5:53 PM 70.0 °F 45.0 °F 41% 30.08 in 10.0 mi NNW 3.5 mph - N/A   Clear
6:53 PM 72.0 °F 45.0 °F 38% 30.09 in 10.0 mi Calm Calm - N/A   Clear
7:53 PM 64.9 °F 46.9 °F 52% 30.11 in 10.0 mi Calm Calm - N/A   Clear
8:53 PM 61.0 °F 46.0 °F 58% 30.12 in 10.0 mi NE 3.5 mph - N/A   Clear
9:53 PM 61.0 °F 46.9 °F 60% 30.12 in 10.0 mi ENE 3.5 mph - N/A   Clear
10:53 PM 57.0 °F 46.0 °F 67% 30.12 in 10.0 mi NE 3.5 mph - N/A   Clear
11:53 PM 57.9 °F 46.9 °F 67% 30.12 in 10.0 mi Calm Calm - N/A   Clear